Location: Red n Blue Observatory
(38.4831°N, 87.0953°W)
Time: 17:06:29
(UTC-04:00)

ACS3 Solar Sail - Visible Passes

Search period start: 19 September 2024 00:00
Search period end: 29 September 2024 00:00
Orbit: 970 x 1035 km, 97.4° (Epoch: 18 September)

Date Brightness Start Highest point End Pass type
(mag) Time Alt. Az. Time Alt. Az. Time Alt. Az.
19 Sep 2.4 21:16:11 27° ESE 21:18:51 38° ENE 21:24:40 10° N visible
19 Sep 3.2 23:01:26 30° WSW 23:02:48 33° W 23:08:32 10° NNW visible
20 Sep 3.7 20:07:35 10° ENE 20:08:44 10° ENE 20:09:52 10° NE visible
20 Sep 1.8 21:49:35 46° SE 21:51:33 70° ENE 21:57:56 10° N visible
20 Sep 4.0 23:34:49 17° WSW 23:36:03 17° W 23:40:09 10° NW visible
21 Sep 3.2 20:37:41 14° E 20:41:01 20° ENE 20:45:28 10° NNE visible
21 Sep 2.1 22:22:55 51° SSW 22:24:24 66° W 22:30:47 10° NNW visible
22 Sep 2.5 21:10:59 27° ESE 21:13:27 36° ENE 21:19:11 10° N visible
22 Sep 3.1 22:56:14 33° WSW 22:57:21 35° W 23:03:09 10° NNW visible
23 Sep 1.8 21:44:15 47° SE 21:46:01 66° ENE 21:52:21 10° N visible
23 Sep 4.0 23:29:29 18° W 23:30:26 19° W 23:34:44 10° NW visible
24 Sep 3.2 20:32:15 13° E 20:35:22 19° ENE 20:39:38 10° NNE visible
24 Sep 2.0 22:17:29 57° SSW 22:18:42 70° W 22:25:06 10° NNW visible
25 Sep 2.5 21:05:25 27° ESE 21:07:40 34° ENE 21:13:18 10° N visible
25 Sep 3.0 22:50:39 36° WSW 22:51:31 37° W 22:57:23 10° NNW visible
26 Sep 1.9 21:38:33 49° SE 21:40:05 62° ENE 21:46:22 10° N visible
26 Sep 3.9 23:23:47 19° W 23:24:27 20° W 23:28:56 10° NW visible
27 Sep 3.3 20:26:25 13° E 20:29:23 18° ENE 20:33:23 10° NNE visible
27 Sep 2.0 22:11:38 63° SSW 22:12:37 74° WSW 22:19:01 10° NNW visible
28 Sep 2.6 20:59:28 26° E 21:01:30 32° ENE 21:07:00 10° N visible
28 Sep 2.9 22:44:41 39° WSW 22:45:17 40° W 22:51:13 10° NNW visible
